User: anonymous   Login
Location: Unspecified
(0.0000°N, 0.0000°E)
Time: 09:18:28
(UTC+00:00)
Language:

Navstar 5 - Orbit

View from above orbital plane
View from above orbital plane
View from above satellite
View from above satellite

Ground track
Ground track

The orbit data is extracted from the following two-line orbital elements,

1 11690U 80011A   18017.45332237 +.00000007 +00000-0 +00000-0 0  9990
2 11690 063.2527 143.9206 0451037 195.1101 106.3752 02.00578730292095
Epoch (UTC): 17 January 2018 10:52:47
Eccentricity: 0.0451037
inclination: 63.2527°
perigee height: 18983 km
apogee height: 21378 km
right ascension of ascending node: 143.9206°
argument of perigee: 195.1101°
revolutions per day: 2.00578730
mean anomaly at epoch: 106.3752°
orbit number at epoch: 29209

The dashed part of the orbit path shows where the satellite is in the earth's shadow,  

DLR